Wind_Speed
20 19 20 22 21 22 23 22 22 24 25 28 29 32 36 39 40 40 39 34 32 33 43 48 26 28 43 34 39 37 45 46 53 58 43 40 37 35 31 33 30 29 31 34
15 16 17 17 16 18 21 23 22 25 24 27 29 32 33 34 32 29 27 23 18 32 41 26 19 21 31 43 45 43 48 51 55 46 38 34 34 36 33 33 37 37 39 39
14 16 18 20 23 23 22 25 23 25 26 28 27 31 29 30 27 24 23 27 30 35 36 42 27 25 32 30 38 44 51 50 54 47 37 42 40 42 35 35 38 39 39 38
13 13 16 16 17 18 19 21 23 24 26 26 21 26 24 28 27 25 26 30 32 29 20 24 24 27 38 39 37 46 51 55 54 45 41 42 47 38 36 38 38 43 44 43
14 12 16 14 16 17 20 22 23 24 25 26 28 25 29 30 27 22 28 29 23 22 22 13 21 32 33 34 38 43 48 52 56 46 39 41 43 37 36 38 39 43 47 48
13 12 13 16 20 18 21 22 23 22 23 26 28 30 32 33 28 24 26 32 21 20 19 18 15 22 28 31 37 44 53 48 46 40 35 38 45 38 39 42 43 43 45 47
16 14 17 17 19 18 21 22 22 19 24 25 31 28 29 32 30 23 24 30 24 13 16 14 19 16 16 43 40 47 45 45 39 37 32 38 43 43 42 44 51 42 46 61
20 18 22 22 21 24 22 23 23 24 26 29 35 33 28 30 30 28 27 29 31 24 23 24 32 24 23 37 34 37 47 43 37 33 33 45 49 44 47 47 50 53 53 68
24 25 27 23 25 27 28 30 28 27 27 26 32 37 31 27 30 30 30 34 39 36 26 21 20 23 24 48 51 45 41 39 39 33 44 53 50 46 51 51 57 63 58 66
31 29 24 27 26 30 30 31 30 30 27 26 27 26 30 29 28 32 32 38 38 34 39 32 27 36 45 39 44 38 38 37 40 46 55 59 57 57 56 58 62 66 58 61
31 28 30 31 31 27 29 24 23 25 29 26 23 30 32 30 27 28 32 38 37 41 42 35 28 31 39 34 39 45 46 40 48 55 61 62 61 61 62 61 62 58 60 64
27 30 26 31 33 24 27 22 22 27 28 26 27 31 30 31 29 30 32 34 38 37 37 37 39 37 39 48 43 44 53 53 57 57 63 68 65 63 62 63 63 60 63 63
27 30 23 28 37 26 19 19 27 29 29 30 30 28 33 30 31 34 33 36 40 40 44 45 48 42 41 43 45 51 56 57 62 65 64 67 64 59 61 64 62 60 60 63
34 35 30 31 34 32 25 23 29 33 34 32 34 31 32 29 31 33 32 32 38 46 48 49 54 56 51 53 59 63 61 63 64 67 70 67 58 60 60 62 63 59 61 55
37 46 36 33 32 28 27 37 42 37 38 38 33 30 31 29 33 32 32 31 33 43 49 54 61 63 64 66 67 67 68 71 69 72 65 57 58 55 58 60 54 51 52 52
42 45 40 39 44 36 33 34 42 40 40 43 33 30 34 34 33 32 34 35 35 38 39 44 45 56 64 66 68 67 63 65 59 57 56 54 53 55 56 56 53 55 56 56
28 38 44 40 46 37 35 36 40 39 39 44 37 34 36 38 38 33 33 34 35 34 36 35 40 48 55 61 66 67 67 65 57 52 53 54 58 57 57 56 55 56 58 58
20 27 32 40 45 37 40 43 48 46 41 41 35 34 34 34 34 34 34 33 34 34 35 36 36 37 39 44 53 58 60 57 53 54 55 56 55 58 58 57 58 59 61 62
25 25 29 34 40 44 47 47 42 46 37 29 28 26 29 37 34 34 36 33 33 35 36 36 35 36 37 39 42 45 47 48 50 52 52 52 55 58 59 59 60 63 65 64
33 41 35 41 40 42 39 38 43 36 37 35 27 28 36 40 34 36 35 35 38 40 38 37 38 38 41 43 44 46 48 50 50 52 55 58 59 60 61 63 65 66 67 68
37 41 42 35 28 30 34 32 27 22 18 30 34 36 41 36 34 32 32 30 32 31 29 31 35 38 43 50 54 56 55 55 57 59 60 61 64 65 66 68 68 70 72 72
32 33 43 25 28 25 25 28 29 37 42 39 39 36 39 38 41 37 30 29 32 31 35 42 46 53 57 56 59 60 61 63 64 65 65 66 67 69 71 71 71 74 76 77
26 19 26 21 26 28 32 36 44 38 45 40 41 40 49 43 45 45 50 46 46 45 49 56 58 59 71 67 61 65 66 69 69 69 69 71 72 73 76 77 77 78 80 80
27 28 29 30 29 30 32 32 34 38 45 45 44 49 48 51 45 49 48 51 51 58 61 60 67 73 66 61 63 65 70 71 72 72 72 74 77 77 78 80 79 80 81 82
32 36 33 32 33 33 34 39 40 42 45 46 49 48 53 53 54 59 56 57 58 57 63 70 73 68 64 66 69 72 74 76 76 75 75 74 74 74 79 83 84 85 85 85
37 35 35 33 32 34 40 42 49 51 54 53 51 51 53 54 57 56 58 56 64 68 69 71 70 70 69 70 74 77 78 77 76 76 75 75 77 80 82 85 86 87 87 89
Wind_Direction
244 250 250 252 258 266 268 265 265 268 271 274 275 279 279 279 279 279 278 271 259 238 220 229 259 255 274 290 305 302 316 333 339 339 337 331 327 329 332 331 323 319 314 308
253 250 255 252 256 262 265 267 267 268 270 275 282 284 287 283 287 286 284 277 254 254 242 211 240 208 248 286 289 307 318 324 328 341 350 350 340 334 336 329 323 320 314 312
256 260 259 257 264 267 270 273 271 278 285 285 289 287 288 291 285 284 268 264 243 249 269 234 240 248 269 293 295 309 329 330 328 318 340 348 343 348 335 332 328 321 319 320
252 261 262 268 271 281 279 283 284 286 282 283 278 285 295 287 279 275 277 264 256 256 250 254 272 290 278 280 294 317 327 323 324 320 333 344 345 342 336 330 328 321 318 317
275 275 277 276 281 275 279 268 272 281 282 283 293 302 300 299 287 277 270 269 273 256 237 244 301 314 282 283 299 303 322 321 311 317 331 345 345 341 333 329 327 323 316 312
286 286 294 291 288 297 292 289 293 289 289 289 291 297 301 300 288 283 265 270 270 257 256 258 278 293 287 304 311 304 302 310 313 322 332 341 343 340 338 335 326 318 321 324
280 291 288 291 292 290 288 293 295 283 290 288 292 299 295 295 282 280 274 266 255 266 254 248 275 300 255 294 294 288 299 304 304 316 331 338 336 337 339 336 334 328 328 328
278 285 292 291 287 300 303 293 286 287 298 298 301 306 297 287 279 276 260 249 259 265 239 265 264 261 301 260 278 268 300 306 306 310 327 325 324 333 332 332 332 326 325 328
282 284 287 278 288 301 303 301 298 289 286 291 294 296 298 286 273 265 254 245 248 253 237 238 238 234 226 246 261 280 294 303 304 313 320 317 317 319 319 324 324 331 328 330
285 283 288 291 293 293 296 293 297 296 292 293 293 303 295 282 278 269 266 255 246 237 234 234 229 253 219 248 262 274 285 304 300 305 306 309 311 308 315 320 326 328 326 325
292 295 292 291 291 294 292 290 293 289 284 285 279 300 308 287 284 276 276 262 259 242 244 244 234 242 216 248 261 266 276 291 296 304 307 307 305 306 313 321 323 326 328 324
262 264 273 283 291 297 296 305 307 300 297 294 288 297 300 292 287 285 280 281 269 245 240 226 242 264 265 257 267 284 287 292 294 302 301 305 304 313 319 318 320 317 322 322
265 272 276 281 285 280 285 302 322 307 310 302 295 286 288 291 284 277 276 279 272 254 254 231 256 259 255 266 274 278 286 292 295 296 296 297 304 309 310 314 314 312 315 317
271 271 271 271 280 292 274 290 307 311 314 303 299 289 286 286 287 268 264 273 272 265 261 255 258 257 256 257 268 278 284 289 291 292 293 299 302 305 306 308 308 310 311 310
265 268 268 272 276 273 282 293 298 307 313 308 304 297 293 292 291 276 260 261 267 267 268 269 272 266 266 273 276 277 281 284 290 292 293 295 297 298 302 306 309 306 306 309
261 265 269 268 269 278 286 285 291 303 308 308 304 302 298 295 293 285 269 268 271 271 271 272 270 266 263 269 274 279 282 291 295 289 289 289 295 296 298 303 301 300 302 309
282 277 267 263 271 277 276 288 294 298 302 306 300 303 304 305 300 286 279 275 277 279 276 279 279 277 275 275 276 278 283 285 287 291 290 290 290 295 300 297 298 300 305 309
294 293 283 275 276 279 268 280 297 293 295 296 298 301 301 304 302 290 280 277 278 277 279 278 280 277 277 277 276 276 277 278 282 287 289 290 294 297 296 297 299 301 303 305
292 290 284 277 273 273 279 288 288 287 284 293 295 293 302 310 298 287 282 278 278 283 282 281 282 285 288 288 290 288 287 288 289 291 294 295 294 293 295 298 299 299 299 303
277 290 278 284 274 269 275 279 283 278 283 287 291 297 298 306 307 295 284 276 279 285 290 292 288 292 294 294 294 293 292 293 294 293 290 290 292 294 295 296 296 298 300 303
280 287 288 281 284 277 263 265 259 269 254 289 288 293 296 301 301 313 300 289 287 290 293 302 303 300 302 302 300 298 296 294 292 292 292 293 293 295 295 295 296 297 298 299
265 271 273 271 266 259 257 265 264 258 264 282 287 281 288 295 295 296 299 290 294 291 299 302 304 306 309 302 298 293 292 291 290 290 290 290 290 290 292 292 292 294 297 298
255 263 256 253 258 255 258 264 272 256 245 269 275 284 280 293 292 292 293 285 281 293 296 300 300 298 303 302 294 293 291 290 290 289 289 291 293 291 290 292 293 295 296 298
239 238 243 267 259 266 258 266 281 262 262 277 284 287 283 288 276 284 286 290 291 292 293 293 296 302 300 295 291 288 290 291 293 291 290 290 291 292 291 293 293 294 296 298
244 246 249 259 266 268 261 279 280 275 268 269 272 279 282 282 279 285 293 285 289 289 289 291 298 298 296 295 293 294 292 291 291 292 294 293 292 291 290 291 293 295 296 297
250 245 247 269 279 282 280 277 280 281 277 275 280 283 284 284 287 290 289 284 284 288 292 296 297 299 301 301 301 301 299 297 297 297 296 293 293 293 293 294 295 296 296 297
Height
10884 10886 10886 10885 10885 10885 10884 10885 10883 10881 10880 10879 10880 10876 10873 10869 10869 10868 10869 10871 10871 10873 10874 10872 10875 10876 10866 10860 10852 10844 10838 10832 10829 10819 10819 10810 10806 10799 10794 10790 10786 10784 10781 10779
10882 10882 10882 10881 10881 10880 10879 10879 10878 10876 10875 10875 10873 10868 10867 10861 10857 10857 10858 10858 10857 10852 10852 10857 10858 10855 10863 10848 10841 10837 10829 10824 10822 10819 10815 10807 10802 10795 10791 10788 10784 10780 10775 10771
10879 10879 10879 10878 10877 10876 10874 10874 10873 10871 10870 10870 10866 10860 10859 10854 10851 10850 10849 10846 10843 10842 10843 10843 10844 10847 10843 10841 10836 10828 10819 10816 10815 10813 10805 10799 10795 10788 10784 10781 10779 10775 10770 10767
10876 10875 10874 10873 10873 10871 10869 10868 10866 10864 10865 10863 10864 10858 10855 10848 10842 10840 10838 10835 10832 10831 10832 10839 10840 10838 10835 10827 10825 10815 10807 10808 10810 10808 10799 10794 10788 10783 10778 10775 10772 10769 10764 10761
10870 10870 10867 10868 10867 10866 10864 10862 10859 10860 10859 10856 10851 10850 10844 10839 10834 10834 10830 10828 10827 10825 10827 10831 10835 10833 10821 10816 10815 10810 10804 10801 10807 10801 10791 10788 10780 10779 10773 10768 10764 10761 10757 10753
10865 10863 10863 10861 10858 10859 10857 10856 10855 10854 10852 10849 10845 10840 10836 10833 10829 10826 10823 10821 10822 10820 10822 10826 10824 10823 10816 10809 10805 10806 10804 10800 10802 10794 10785 10782 10777 10774 10772 10764 10758 10755 10749 10743
10858 10858 10857 10856 10854 10853 10853 10851 10848 10846 10845 10841 10836 10835 10830 10827 10823 10820 10817 10814 10816 10818 10819 10817 10817 10818 10810 10800 10799 10802 10799 10799 10794 10790 10781 10777 10773 10769 10766 10759 10753 10747 10744 10737
10853 10854 10851 10851 10849 10846 10846 10846 10844 10841 10837 10833 10826 10824 10824 10819 10817 10815 10812 10812 10811 10812 10812 10811 10809 10811 10809 10789 10790 10792 10797 10793 10787 10781 10775 10771 10766 10762 10760 10755 10751 10745 10738 10732
10848 10846 10846 10844 10843 10842 10838 10837 10836 10834 10832 10829 10824 10816 10814 10813 10809 10809 10808 10808 10806 10805 10806 10804 10804 10810 10799 10800 10791 10792 10788 10784 10778 10772 10768 10764 10761 10759 10756 10750 10745 10741 10732 10724
10838 10837 10837 10837 10836 10833 10832 10829 10827 10825 10825 10823 10819 10814 10809 10806 10801 10801 10803 10799 10797 10801 10800 10799 10802 10803 10800 10794 10790 10782 10776 10774 10768 10764 10759 10757 10754 10749 10746 10739 10730 10728 10722 10716
10830 10829 10827 10825 10824 10825 10820 10820 10821 10820 10816 10816 10815 10808 10804 10800 10798 10796 10792 10791 10792 10793 10793 10792 10795 10789 10786 10781 10778 10773 10770 10766 10759 10753 10748 10748 10743 10738 10733 10727 10721 10717 10712 10707
10824 10822 10822 10818 10814 10818 10815 10811 10810 10809 10809 10808 10807 10803 10797 10793 10793 10790 10785 10783 10781 10783 10782 10781 10780 10777 10774 10773 10768 10764 10760 10756 10751 10745 10741 10737 10733 10727 10720 10717 10712 10708 10701 10696
10815 10813 10815 10812 10806 10809 10807 10805 10804 10801 10799 10798 10798 10796 10788 10789 10787 10783 10779 10774 10772 10773 10773 10772 10768 10769 10766 10763 10761 10758 10754 10749 10744 10738 10733 10730 10725 10719 10715 10711 10706 10701 10695 10690
10806 10805 10805 10805 10801 10799 10800 10797 10796 10793 10792 10791 10788 10785 10782 10782 10778 10776 10773 10768 10763 10763 10764 10761 10759 10757 10758 10756 10752 10750 10745 10739 10734 10731 10726 10721 10717 10712 10708 10703 10698 10693 10687 10681
10795 10791 10794 10793 10794 10793 10793 10788 10784 10783 10783 10782 10780 10773 10771 10771 10768 10766 10766 10763 10759 10755 10754 10751 10748 10747 10747 10745 10743 10738 10734 10731 10726 10724 10718 10713 10710 10703 10698 10694 10689 10683 10678 10672
10784 10782 10784 10786 10783 10786 10784 10778 10778 10775 10775 10775 10773 10767 10762 10760 10758 10755 10754 10753 10753 10750 10747 10742 10740 10737 10735 10734 10731 10729 10725 10720 10716 10713 10708 10703 10699 10691 10687 10683 10679 10674 10668 10660
10775 10774 10774 10776 10769 10776 10773 10772 10770 10767 10765 10764 10764 10760 10755 10751 10746 10745 10743 10742 10742 10741 10740 10736 10729 10724 10722 10720 10717 10716 10713 10711 10707 10701 10694 10689 10685 10681 10675 10672 10667 10661 10655 10648
10766 10765 10766 10766 10761 10764 10762 10759 10760 10757 10756 10753 10753 10749 10745 10741 10738 10735 10734 10733 10733 10733 10732 10728 10724 10720 10718 10714 10710 10708 10705 10701 10694 10687 10682 10677 10672 10667 10662 10658 10654 10648 10642 10635
10754 10754 10752 10754 10751 10753 10750 10751 10748 10745 10742 10742 10743 10739 10737 10733 10728 10725 10723 10723 10722 10721 10722 10720 10716 10712 10709 10706 10701 10696 10692 10686 10680 10674 10668 10664 10660 10655 10649 10645 10640 10634 10626 10621
10748 10747 10745 10742 10744 10742 10740 10738 10735 10733 10731 10730 10731 10731 10727 10724 10719 10715 10714 10713 10711 10708 10706 10705 10703 10700 10697 10695 10690 10684 10678 10672 10666 10662 10658 10652 10645 10641 10636 10631 10625 10619 10612 10605
10743 10739 10737 10733 10729 10730 10727 10730 10728 10725 10722 10720 10718 10720 10717 10715 10709 10707 10705 10702 10698 10697 10695 10693 10689 10687 10684 10680 10675 10670 10666 10661 10656 10651 10645 10638 10630 10624 10620 10614 10610 10603 10595 10589
10733 10730 10726 10724 10722 10722 10720 10722 10722 10718 10714 10711 10708 10711 10711 10707 10699 10699 10699 10695 10690 10688 10686 10683 10680 10675 10670 10666 10661 10655 10650 10644 10638 10633 10628 10621 10613 10607 10601 10595 10588 10583 10575 10568
10721 10719 10717 10712 10713 10715 10715 10715 10711 10708 10705 10702 10702 10702 10702 10701 10692 10688 10687 10686 10682 10678 10675 10672 10669 10664 10658 10650 10643 10637 10630 10624 10618 10612 10607 10600 10594 10587 10580 10573 10567 10562 10553 10547
10709 10706 10707 10706 10704 10704 10703 10704 10702 10700 10697 10695 10693 10691 10688 10687 10683 10677 10674 10673 10672 10666 10660 10655 10651 10645 10639 10632 10625 10618 10612 10605 10597 10591 10586 10580 10572 10565 10557 10550 10546 10539 10531 10525
10697 10698 10698 10697 10694 10693 10694 10694 10692 10690 10689 10686 10684 10680 10676 10672 10670 10666 10663 10659 10655 10651 10647 10641 10635 10627 10621 10614 10606 10600 10593 10585 10577 10570 10564 10556 10548 10542 10533 10526 10521 10515 10508 10501
10685 10688 10687 10685 10681 10678 10680 10681 10678 10676 10674 10671 10671 10666 10663 10660 10656 10652 10650 10647 10642 10638 10634 10628 10621 10612 10604 10597 10587 10578 10569 10561 10555 10547 10542 10535 10528 10521 10514 10506 10497 10490 10483 10475